STARLINK-2292, 48023

Orbit data source: Space-Track

STARLINK-2292, 48023 is a payload satellite owned by SpaceX/Seattle (US) in LEO that was launched on Wed, 24 Mar 2021 UTC via an FALCON 9 launch vehicle from the Air Force Eastern Test Range (AFETR). Payload-class satellites include a variety of spacecraft equipped with specific instruments for various scientific and technological missions. These include communications satellites like Starlink; space stations such as the ISS; scientific satellites like the Hubble; Earth observation satellites from companies like Planet Labs, Umbra, and HawkEye 360; GPS; miniature CubeSats for education and research; and military/defense satellites.

Loading next visibility...
Identifier
48023, 2021-024AY
Orbit
LEO
Country
Flag of USUS
Related business
Manufacturer
SpaceX/Seattle
Mission
Partially operational Commercial Communications
Bus & Motor
STARLINK, Unknown motor
Mass
260 kg wet, ~248 kg dry
Launch date (UTC)
2021-03-24 (5 years ago)
Launch vehicle
FALCON 9
Launch site
Air Force Eastern Test Range (AFETR)
Object type
Payload
Rocket body
Debris
Shape & HBR
Box + 1 Pan, 10.1 m
Radar Cross Section
13.562 m², Large (>1 m²)

Expand to show TLE details & history
Last TLE update: 13 hours ago

TLE from 13 hours ago
0 STARLINK-2292
1 48023U 21024AY  26130.03539847  .00041578  00000-0  10361-2 0  9995
2 48023  53.1202  44.7976 0003007 132.7905 227.3353 15.39840710284047
Epoch: 2026-05-10T00:50Z
TLE epoch observation values (Epoch: 2026-05-10T00:50:58.427Z)
Latitude
-0.00001°
Longitude
164.20988°
Altitude
448.87 km
Speed
7.643 km/s
True Right ascension
02h 59m 11s
True Declination
0° 00' 00"
Sunlit
Object was in daylight at epoch
Visualization orbit readout
Latitude
Unknown
Longitude
Unknown
Altitude
Unknown
Speed
Unknown
Apparent Right ascension
Unknown
Apparent Declination
Unknown
Sunlit
N/A
Visualization observer readout
Local Sidereal Time
22:11:11
Azimuth
Unknown
Elevation
Unknown
Doppler factor
Unknown
Orbital elements
Apogee altitude
448.896 km
Perigee altitude
444.792 km
Semi-major axis
6,824.981 km
Eccentricity
0.0003
Inclination
53.1202°
RAAN
44.7976°
Arg. of periapsis
132.7905°
True anomaly
227.30997°
Mean anomaly
227.3353°
Eccentric anomaly
227.32263°
Mean motion
3.84938 °/min
Orbital period
93.52 mins
BSTAR
0.0010361
Loading maneuver chart data...
Computing Atmospheric mass density...

Documentation

Showing up to 5 results
|